User: anonymous   Login
Location: Columbia
(38.9520°N, 92.3340°W)
Time: 06:11:16
(UTC-06:00)
Language:

Cosmos 1633 - Orbit

View from above orbital plane
View from above orbital plane
View from above satellite
View from above satellite

Ground track
Ground track

The orbit data is extracted from the following two-line orbital elements,

1 15592U 85020A   14352.95114235  .00012940  00000-0  57696-3 0  6250
2 15592 082.5386 148.6174 0016956 143.9208 333.8181 15.21160939625345
Epoch (UTC): 18 December 2014 22:49:38
Eccentricity: 0.0016956
inclination: 82.5386°
perigee height: 490 km
apogee height: 514 km
right ascension of ascending node: 148.6174°
argument of perigee: 143.9208°
revolutions per day: 15.21160939
mean anomaly at epoch: 333.8181°
orbit number at epoch: 62534

The dashed part of the orbit path shows where the satellite is in the earth's shadow,  

DLR